Wind_Speed
45 43 41 31 30 31 32 30 30 29 29 30 30 30 29 27 26 25 22 22 20 16 17 17 15 14 14 13 12 7 15 16 17 19 19 18 17 19 20 21 18 15 16
49 47 45 43 32 32 33 34 33 31 29 29 30 30 31 28 24 24 23 23 22 17 15 17 17 15 9 12 16 12 13 15 16 17 19 20 20 20 21 22 21 18 17
48 51 51 48 43 35 35 35 36 35 32 32 31 32 33 32 28 23 25 23 24 22 16 15 15 14 10 14 15 14 14 14 14 18 20 21 20 22 23 23 22 21 21
47 53 57 54 49 43 39 38 38 36 35 34 33 34 34 33 32 29 26 28 24 24 20 16 16 14 13 12 15 13 14 14 14 17 17 19 21 21 23 23 21 22 23
48 50 57 65 44 50 43 42 42 38 38 36 36 37 35 34 34 32 26 25 24 24 23 20 17 17 15 16 19 21 21 20 19 17 18 18 19 21 21 22 23 23 23
50 52 53 52 54 52 52 45 46 42 43 40 42 41 38 37 34 34 32 25 25 26 26 21 20 19 19 17 18 21 24 25 22 20 21 20 21 23 23 24 24 23 24
55 53 53 57 58 58 56 50 48 49 47 44 46 47 45 41 39 34 38 29 28 28 30 24 19 20 20 22 19 22 26 25 27 24 21 23 22 23 25 25 24 24 25
54 56 56 55 49 54 53 55 52 53 50 50 48 51 48 46 41 39 41 35 28 30 31 33 27 25 25 23 26 24 25 27 26 24 22 24 24 25 25 25 25 25 25
54 55 56 58 61 59 55 56 58 59 55 55 55 52 55 52 44 49 41 39 37 34 35 32 36 27 28 27 27 28 27 28 27 31 29 26 25 27 27 27 27 27 28
63 56 55 57 60 63 64 59 65 65 62 66 55 59 57 54 53 50 47 40 38 43 37 32 38 36 31 33 32 29 30 30 29 30 31 33 30 30 31 29 30 30 30
66 68 61 60 60 61 64 64 60 68 62 65 58 56 58 58 54 50 47 46 48 42 40 41 36 39 32 33 31 32 31 31 31 29 29 34 36 35 34 35 33 31 30
67 68 69 66 64 62 63 67 63 69 61 68 59 65 52 56 55 51 55 58 57 48 39 40 41 39 35 33 32 36 36 32 33 30 31 33 33 36 35 34 34 33 32
70 71 73 73 71 69 66 66 70 69 68 63 68 67 63 60 52 56 55 46 45 46 44 45 40 39 35 36 36 36 40 36 36 34 28 30 32 34 34 32 32 34 34
77 75 75 74 76 76 74 72 73 72 70 68 68 68 66 62 57 61 62 58 42 41 37 40 43 40 42 38 39 35 42 39 33 36 34 32 31 32 34 34 31 30 30
85 83 80 76 73 75 76 75 76 76 70 69 53 66 68 65 62 61 63 61 53 51 44 40 46 45 40 39 39 36 41 42 40 38 35 34 33 31 32 33 31 31 31
62 75 83 80 77 72 72 73 74 75 72 70 71 66 67 65 63 62 59 60 58 49 41 40 42 45 42 44 38 39 41 43 42 39 37 36 35 31 31 31 31 32 32
40 41 53 71 78 74 70 69 73 73 73 68 66 65 63 62 60 62 61 56 53 56 53 39 41 39 40 44 46 45 41 45 46 43 39 38 38 36 33 30 28 28 33
45 43 42 43 61 73 71 68 67 67 69 68 64 64 62 59 56 52 55 55 49 37 39 36 43 43 45 43 49 48 38 44 48 45 43 39 38 39 38 34 32 30 27
30 27 33 40 42 62 67 67 63 64 66 63 61 63 59 59 55 50 42 42 40 37 38 42 38 35 39 44 40 38 45 43 46 48 46 44 40 40 39 37 34 31 29
22 24 25 32 30 40 36 60 68 60 61 60 60 63 61 60 60 56 53 46 44 41 41 39 33 35 37 38 42 36 37 41 47 50 48 47 44 43 40 36 34 33 32
17 25 27 28 34 36 48 51 60 60 56 56 55 58 60 60 53 48 45 45 43 44 47 47 44 42 43 40 41 47 48 47 46 48 45 55 49 46 44 42 38 35 35
15 18 20 27 27 34 41 43 41 56 58 55 55 54 59 51 49 49 47 42 41 41 43 43 42 37 35 40 51 41 43 46 49 50 52 45 46 51 53 42 41 40 38
16 14 8 14 19 31 42 38 49 46 37 52 46 49 41 42 46 44 44 41 43 43 42 42 41 42 41 40 43 41 43 41 48 50 55 59 53 49 46 49 50 48 40
19 15 10 13 12 22 38 32 46 55 50 46 59 49 37 44 42 45 42 41 43 45 46 44 44 44 44 47 45 45 43 50 39 38 41 42 49 55 49 53 45 47 41
11 15 17 13 10 10 25 33 36 42 53 66 50 50 50 53 44 45 45 45 48 45 44 43 44 44 46 45 45 49 48 44 48 42 37 44 41 46 49 48 52 48 53
22 17 14 12 12 11 12 33 45 45 50 62 61 72 64 48 44 48 49 49 50 46 44 44 42 40 42 44 44 45 48 52 55 47 42 45 47 49 51 46 47 55 46
Wind_Direction
278 280 281 274 274 277 280 276 274 273 275 279 282 284 287 292 295 298 301 300 300 296 297 311 312 303 288 248 251 222 217 212 231 240 242 242 244 240 235 230 230 233 239
274 276 274 276 267 267 271 274 273 271 273 274 277 279 283 288 292 296 298 297 297 297 292 305 320 316 285 234 227 229 226 224 230 240 243 248 250 249 243 237 232 235 236
276 271 272 272 273 266 262 265 268 269 268 268 273 275 279 282 284 288 293 295 298 299 291 289 305 308 272 241 233 227 230 236 245 248 245 244 242 243 242 237 237 236 241
270 275 270 273 266 264 261 259 262 263 267 266 265 266 273 279 287 287 286 289 292 294 298 287 283 290 278 259 240 234 239 261 257 248 243 239 239 240 238 239 237 240 245
262 263 268 267 257 265 257 255 257 260 262 257 262 262 266 272 276 281 284 282 284 286 290 292 278 276 277 269 260 257 260 264 270 259 248 243 243 238 240 242 241 247 256
264 264 267 270 255 266 262 255 257 254 257 259 261 264 262 264 265 271 273 278 279 284 282 283 280 269 271 271 274 267 263 259 263 262 247 242 240 241 242 245 246 249 256
266 263 263 265 264 254 252 254 254 256 257 256 260 262 263 262 262 260 269 271 273 278 279 274 270 272 266 267 267 271 265 258 258 252 254 241 239 241 245 245 249 253 257
262 262 262 261 256 256 252 255 255 257 255 255 256 260 263 263 263 261 263 266 261 266 272 278 272 268 268 264 265 270 268 258 254 249 256 249 241 241 245 247 250 256 263
259 258 259 258 259 256 254 254 257 259 251 253 254 255 257 260 263 259 258 265 267 260 266 268 273 270 271 273 265 262 268 262 254 252 252 251 247 246 243 249 254 255 259
269 260 256 257 257 258 254 250 250 256 255 253 248 257 257 255 259 261 255 270 271 271 262 255 264 265 264 272 269 259 264 262 256 256 253 249 248 250 247 246 250 255 259
269 271 263 253 254 257 259 256 250 249 251 263 247 250 261 256 262 266 259 267 269 266 263 260 256 265 258 267 268 257 258 255 259 255 255 253 254 248 250 245 247 253 257
260 259 261 254 248 251 255 257 251 252 241 249 249 256 268 255 264 264 263 265 265 255 261 251 244 255 252 249 262 261 262 252 252 254 254 255 256 252 251 253 246 248 254
257 253 254 253 248 245 245 249 251 249 252 249 250 253 258 259 262 258 260 261 270 244 261 258 251 260 254 251 255 260 264 247 249 249 252 256 257 251 247 242 245 244 249
259 255 251 250 250 245 241 242 244 246 244 250 253 252 253 255 257 260 260 266 272 254 259 262 260 255 250 249 249 253 260 243 248 251 251 257 260 250 239 241 243 245 246
258 255 252 248 246 247 246 245 241 243 242 240 251 244 249 252 253 257 261 267 272 268 266 270 258 252 250 247 245 248 247 247 249 248 251 254 257 250 241 239 246 250 251
265 253 247 245 243 243 244 244 244 243 241 239 244 249 248 249 251 253 260 264 272 273 256 258 259 250 246 240 246 243 243 246 245 245 248 249 253 253 247 245 247 249 251
269 268 256 243 240 237 240 242 243 242 242 240 240 244 248 249 252 252 256 264 269 270 270 252 250 242 246 249 240 246 240 241 240 241 245 244 248 250 249 248 249 255 255
271 264 257 245 240 234 235 239 240 241 242 243 241 244 246 250 255 258 257 264 262 260 258 256 238 242 250 241 240 238 235 236 241 241 241 241 243 248 249 249 249 251 255
278 267 257 248 248 232 232 236 237 239 240 240 241 244 248 251 253 253 242 256 267 264 260 247 246 241 241 236 231 235 240 237 238 240 239 238 240 245 247 247 248 252 259
260 251 251 246 250 233 214 236 233 235 237 238 238 243 246 251 255 259 267 264 257 251 256 244 240 245 242 237 239 238 244 234 237 236 237 236 240 246 245 245 244 251 258
258 248 256 249 250 234 220 221 230 232 235 238 237 243 246 250 257 260 256 254 252 245 248 240 238 239 237 235 241 242 240 236 236 241 245 238 242 241 244 244 245 249 253
298 283 270 250 248 233 218 224 228 223 226 237 225 238 239 249 253 254 246 240 240 240 241 239 232 239 239 240 238 248 241 240 242 248 247 247 238 239 236 241 247 248 248
264 273 291 270 258 235 223 218 225 223 215 225 221 207 233 239 243 231 236 239 240 242 238 238 238 240 241 242 241 246 245 247 249 246 248 246 244 236 238 237 248 246 244
286 274 287 288 288 221 232 219 223 221 227 213 230 234 233 240 242 231 238 241 242 243 240 239 240 245 246 244 245 245 249 237 245 239 246 243 238 241 247 249 251 250 249
319 310 295 287 276 240 231 238 237 232 219 230 232 240 236 238 226 232 243 244 245 247 247 247 249 248 249 251 249 248 248 237 244 246 240 235 238 238 250 248 253 254 254
338 348 323 284 267 247 245 251 248 251 232 229 246 251 235 227 225 234 240 244 248 249 252 249 248 250 250 255 257 251 249 249 252 244 242 244 242 243 243 244 248 252 245
Height
5804 5803 5804 5806 5806 5804 5803 5803 5801 5800 5799 5798 5796 5795 5795 5794 5792 5789 5788 5787 5787 5787 5786 5784 5782 5781 5779 5780 5780 5779 5781 5781 5784 5784 5786 5788 5788 5790 5790 5792 5793 5794 5796
5796 5795 5795 5795 5797 5797 5795 5795 5794 5793 5792 5792 5790 5789 5788 5789 5788 5785 5784 5783 5783 5783 5782 5781 5779 5778 5776 5776 5777 5777 5779 5779 5780 5781 5782 5784 5785 5787 5787 5788 5789 5791 5791
5786 5785 5784 5786 5789 5789 5786 5786 5786 5786 5785 5785 5785 5782 5781 5781 5783 5782 5778 5778 5777 5778 5777 5777 5776 5776 5776 5775 5775 5776 5777 5777 5777 5778 5779 5780 5781 5782 5783 5785 5785 5786 5788
5776 5774 5773 5775 5776 5779 5778 5777 5777 5778 5777 5777 5777 5776 5773 5773 5774 5775 5776 5772 5771 5770 5772 5773 5773 5772 5773 5773 5774 5774 5774 5774 5774 5774 5775 5776 5777 5778 5779 5780 5781 5783 5784
5764 5763 5762 5762 5766 5766 5768 5767 5766 5769 5769 5768 5768 5767 5766 5766 5767 5767 5769 5767 5766 5764 5765 5768 5768 5769 5769 5769 5770 5770 5770 5771 5771 5769 5769 5771 5772 5774 5775 5776 5777 5779 5781
5752 5752 5751 5751 5756 5754 5754 5757 5757 5758 5760 5760 5757 5758 5758 5758 5760 5762 5762 5762 5760 5759 5758 5761 5762 5762 5763 5764 5764 5764 5764 5765 5766 5766 5765 5766 5768 5769 5770 5772 5773 5774 5775
5737 5738 5738 5738 5741 5742 5743 5742 5747 5745 5749 5751 5748 5747 5748 5750 5750 5754 5753 5756 5755 5754 5752 5754 5755 5756 5757 5758 5758 5759 5759 5759 5760 5761 5761 5761 5763 5765 5766 5767 5768 5769 5769
5722 5722 5724 5725 5727 5730 5731 5730 5735 5735 5737 5740 5739 5737 5738 5739 5741 5743 5744 5744 5748 5748 5748 5746 5747 5748 5749 5750 5751 5752 5753 5753 5754 5755 5756 5757 5757 5759 5760 5761 5762 5763 5764
5706 5706 5707 5709 5710 5714 5718 5722 5719 5720 5722 5726 5727 5726 5723 5725 5732 5730 5733 5735 5736 5740 5742 5741 5740 5740 5741 5743 5744 5745 5746 5747 5747 5748 5750 5751 5751 5753 5754 5755 5757 5758 5758
5686 5688 5690 5691 5694 5695 5699 5707 5706 5705 5706 5707 5708 5711 5710 5713 5714 5717 5719 5723 5725 5728 5733 5732 5733 5733 5732 5734 5736 5736 5738 5740 5740 5741 5742 5744 5745 5746 5747 5748 5749 5751 5752
5663 5662 5667 5671 5675 5679 5682 5685 5689 5688 5691 5669 5683 5692 5692 5692 5692 5705 5706 5710 5712 5719 5719 5722 5723 5724 5725 5726 5727 5728 5727 5731 5733 5733 5735 5736 5738 5738 5740 5741 5742 5744 5745
5643 5642 5642 5648 5654 5659 5664 5667 5671 5671 5673 5669 5671 5674 5677 5689 5692 5692 5694 5696 5700 5703 5706 5709 5710 5713 5714 5716 5718 5720 5719 5722 5726 5726 5727 5729 5730 5731 5732 5733 5734 5736 5737
5621 5620 5620 5623 5631 5637 5642 5648 5652 5656 5658 5659 5664 5664 5668 5674 5677 5677 5682 5679 5686 5686 5690 5694 5700 5702 5704 5705 5708 5709 5709 5712 5716 5719 5719 5720 5721 5722 5724 5725 5726 5727 5729
5595 5596 5596 5600 5606 5613 5621 5627 5632 5637 5643 5646 5650 5653 5656 5660 5664 5664 5667 5670 5672 5674 5680 5684 5686 5689 5693 5695 5696 5700 5700 5704 5708 5711 5712 5713 5713 5714 5716 5717 5720 5721 5722
5561 5567 5569 5574 5582 5589 5598 5605 5611 5616 5624 5632 5621 5635 5643 5648 5651 5652 5653 5655 5658 5664 5670 5673 5672 5678 5680 5684 5686 5690 5692 5694 5698 5701 5703 5705 5705 5706 5708 5710 5711 5714 5716
5527 5532 5539 5546 5556 5567 5575 5582 5590 5597 5604 5614 5619 5624 5629 5635 5639 5641 5644 5647 5649 5653 5659 5661 5662 5665 5668 5672 5675 5679 5683 5685 5688 5691 5694 5696 5698 5700 5701 5702 5703 5705 5706
5513 5513 5514 5522 5529 5544 5556 5564 5571 5579 5586 5596 5604 5609 5615 5620 5625 5628 5632 5636 5640 5642 5645 5650 5649 5652 5656 5661 5665 5668 5671 5675 5679 5682 5685 5688 5690 5693 5694 5696 5696 5697 5698
5501 5501 5502 5505 5510 5524 5536 5546 5556 5565 5571 5581 5590 5596 5601 5607 5611 5615 5620 5625 5628 5630 5632 5637 5638 5642 5644 5649 5653 5656 5659 5664 5669 5672 5675 5678 5681 5683 5685 5686 5687 5689 5690
5489 5489 5490 5494 5498 5506 5521 5532 5541 5549 5557 5567 5576 5580 5586 5594 5600 5603 5608 5612 5616 5619 5621 5624 5628 5630 5632 5637 5641 5645 5649 5653 5657 5661 5664 5667 5670 5673 5675 5676 5678 5680 5681
5484 5484 5485 5487 5490 5495 5509 5514 5526 5534 5542 5552 5561 5568 5574 5580 5587 5593 5599 5601 5605 5607 5610 5612 5617 5619 5622 5626 5630 5634 5637 5641 5647 5650 5653 5656 5660 5662 5665 5667 5667 5670 5673
5480 5480 5481 5483 5484 5486 5494 5504 5514 5523 5530 5539 5549 5555 5562 5567 5574 5580 5585 5587 5591 5594 5598 5602 5605 5608 5612 5615 5619 5623 5625 5630 5634 5638 5641 5643 5648 5651 5654 5657 5656 5659 5662
5477 5475 5475 5477 5477 5478 5487 5494 5505 5511 5516 5526 5534 5542 5548 5555 5562 5567 5572 5574 5577 5581 5585 5590 5594 5597 5600 5603 5605 5607 5611 5616 5621 5628 5630 5634 5635 5639 5641 5644 5647 5649 5650
5475 5473 5470 5470 5469 5473 5476 5480 5491 5493 5507 5509 5521 5532 5536 5546 5551 5556 5560 5563 5567 5572 5576 5580 5584 5587 5590 5591 5593 5596 5600 5606 5610 5614 5616 5620 5624 5627 5631 5629 5634 5635 5638
5472 5470 5467 5465 5464 5466 5471 5477 5483 5491 5500 5502 5513 5520 5523 5533 5539 5543 5547 5550 5556 5561 5565 5569 5573 5574 5578 5581 5582 5585 5588 5594 5597 5600 5603 5605 5610 5616 5619 5621 5623 5626 5626
5469 5466 5463 5462 5461 5460 5463 5468 5476 5482 5488 5494 5497 5505 5514 5522 5528 5533 5535 5537 5543 5548 5554 5557 5560 5562 5566 5569 5570 5573 5577 5580 5585 5587 5589 5593 5597 5600 5604 5606 5610 5613 5616
5467 5465 5462 5460 5459 5460 5461 5462 5466 5470 5477 5485 5489 5495 5500 5510 5516 5521 5524 5527 5531 5536 5541 5545 5547 5551 5553 5556 5558 5561 5562 5567 5573 5574 5577 5580 5584 5587 5589 5591 5596 5601 5604